Vancouver, WA
on Saturday, December 8, 2012

Saturday
Previous Day Next Day
Daily Summary
 ActualAverageRecord
Temperature
Mean Temperature °F 41°F  
Max Temperature 47°F 47°F 62°F (1938)
Min Temperature 35°F 35°F 9°F (2013)
Degree Days
Heating Degree Days 24    
Month to date heating degree days 146  
Since 1 July heating degree days 968  
Cooling Degree Days 0    
Month to date cooling degree days 0  
Year to date cooling degree days 398  
Moisture
Dew Point 38°F   
Average Humidity 82    
Maximum Humidity 93    
Minimum Humidity 71    
Precipitation
Precipitation 0.11 in 0.22 in 2.00 in (1902)
Month to date precipitation 2.37 1.61  
Year to date precipitation 40.69 33.98  
Snow
Snow 0.00 in in in ()
Month to date snowfall  
Since 1 July snowfall 0.0  
Snow Depth 0.00 in   
Wind
Wind Speed 1 mph   
Max Wind Speed 8 mph   
Max Gust Speed 13 mph   
Visibility 9 miles   
Events Rain   

Key: T is trace of precipitation, MM is missing value
Source: NWS Daily Summary
Time(PST)TemperatureDew PointHumidity Pressure Visibility Wind DirectionWind SpeedGust SpeedPrecipitationEvents Conditions
12:53 AM 39.9°F 36.0°F 86% 30.23 in 10.0 miles Calm Calm - N/A   Mostly Cloudy
1:53 AM 41.0°F 37.0°F 86% 30.23 in 10.0 miles Calm Calm - N/A   Overcast
3:53 AM 37.0°F 35.1°F 93% 30.23 in 10.0 miles Calm Calm - N/A   Overcast
4:53 AM 37.0°F 35.1°F 93% 30.23 in 10.0 miles Calm Calm - N/A   Clear
5:53 AM 36.0°F 34.0°F 93% 30.24 in 10.0 miles Calm Calm - N/A   Mostly Cloudy
6:53 AM 36.0°F 34.0°F 93% 30.25 in 10.0 miles Calm Calm - N/A   Overcast
7:53 AM 37.9°F 36.0°F 93% 30.26 in 10.0 miles Calm Calm - N/A   Overcast
8:53 AM 41.0°F 37.9°F 89% 30.27 in 10.0 miles Calm Calm - N/A   Mostly Cloudy
9:53 AM 43.0°F 39.0°F 86% 30.29 in 10.0 miles Calm Calm - N/A   Overcast
10:53 AM 44.1°F 39.0°F 82% 30.30 in 10.0 miles Calm Calm - N/A   Overcast
11:53 AM 45.0°F 39.0°F 80% 30.29 in 10.0 miles Calm Calm - N/A   Overcast
12:45 PM 46.4°F 37.4°F 71% 30.28 in 10.0 miles Variable 3.5 mph - N/A   Overcast
12:53 PM 46.0°F 37.9°F 73% 30.28 in 10.0 miles Calm Calm - N/A   Overcast
1:00 PM 46.4°F 37.4°F 71% 30.27 in 10.0 miles SW 3.5 mph - N/A   Overcast
1:53 PM 46.0°F 37.0°F 71% 30.28 in 10.0 miles WSW 4.6 mph - N/A   Overcast
2:53 PM 46.0°F 37.9°F 73% 30.27 in 10.0 miles Calm Calm - 0.01 in Rain Light Rain
3:38 PM 44.6°F 39.2°F 81% 30.29 in 10.0 miles North 4.6 mph - 0.00 in Rain Light Rain
3:53 PM 43.0°F 39.0°F 86% 30.29 in 2.5 miles North 6.9 mph - 0.03 in Rain Rain
4:07 PM 42.8°F 37.4°F 81% 30.29 in 6.0 miles North 5.8 mph - 0.01 in Rain Light Rain
4:24 PM 42.8°F 37.4°F 81% 30.30 in 10.0 miles North 4.6 mph - 0.01 in Rain Light Rain
4:53 PM 43.0°F 37.9°F 82% 30.30 in 10.0 miles Calm Calm - 0.01 in Rain Light Rain
5:03 PM 42.8°F 37.4°F 81% 30.30 in 10.0 miles Calm Calm - 0.01 in Rain Light Rain
5:53 PM 42.1°F 37.9°F 85% 30.31 in 10.0 miles Calm Calm - 0.02 in Rain Light Rain
6:09 PM 42.8°F 37.4°F 81% 30.31 in 10.0 miles Calm Calm - 0.00 in Rain Light Rain
6:53 PM 41.0°F 39.0°F 93% 30.32 in 10.0 miles Calm Calm - 0.00 in   Overcast
7:53 PM 42.1°F 39.0°F 89% 30.34 in 10.0 miles Calm Calm - N/A   Overcast
8:53 PM 42.1°F 39.0°F 89% 30.35 in 10.0 miles Calm Calm - 0.01 in Rain Light Rain
9:53 PM 41.0°F 39.9°F 96% 30.36 in 9.0 miles Calm Calm - 0.01 in Rain Light Rain
9:58 PM 42.8°F 39.2°F 87% 30.36 in 9.0 miles Calm Calm - 0.00 in Rain Light Rain
10:14 PM 42.8°F 39.2°F 87% 30.36 in 9.0 miles Calm Calm - 0.01 in Rain Light Rain
10:21 PM 42.8°F 39.2°F 87% 30.36 in 9.0 miles Calm Calm - 0.01 in Rain Light Rain
10:53 PM 42.1°F 39.0°F 89% 30.36 in 8.0 miles Calm Calm - 0.01 in Rain Light Rain
11:08 PM 42.8°F 39.2°F 87% 30.37 in 9.0 miles Calm Calm - 0.01 in   Overcast
11:29 PM 42.8°F 39.2°F 87% 30.38 in 9.0 miles SE 3.5 mph - 0.01 in   Overcast
11:38 PM 41.0°F 37.4°F 87% 30.37 in 9.0 miles SSE 3.5 mph - 0.01 in   Overcast
11:53 PM 41.0°F 37.9°F 89% 30.38 in 10.0 miles Calm Calm - 0.01 in Rain Light Rain
Moon Phase
Dec. 08 Dec. 13 Dec. 20 Dec. 28 Jan. 04
Sunrise:07:38 AM (PST) Moon Rise:01:56 AM (PST)12/8
Sunset:04:26 PM (PST) Moon Set:01:11 PM (PST)12/8

Copyright © 2014 The Weather Underground, Inc.